User: anonymous   Login
Location: Rounton
(54.4000°N, 1.3500°W)
Time: 17:13:24
(UTC+00:00)
Language:

Explorer 11/Cluster Stage 4 - Orbit

View from above orbital plane
View from above orbital plane
View from above satellite
View from above satellite

Ground track
Ground track

The orbit data is extracted from the following two-line orbital elements,

1 00107U 61013A   21339.82685886  .00001040  00000-0  11980-3 0  9995
2 00107  28.7916  31.2699 0544726 326.7846  29.9626 14.09464322 41955
Epoch (UTC): 05 December 2021 19:50:40
Eccentricity: 0.0544726
inclination: 28.7916°
perigee height: 467 km
apogee height: 1255 km
right ascension of ascending node: 31.2699°
argument of perigee: 326.7846°
revolutions per day: 14.09464322
mean anomaly at epoch: 29.9626°
orbit number at epoch: 4195

The dashed part of the orbit path shows where the satellite is in the earth's shadow,  

DLR